GW5431 Weather Reports


Display with metric or nautical units.
time (UTC)temp
F
wind
direction
speed
MPH
gust
MPH
rain 1hr
in
rain 24hr
in
rain mn
in
humidity
%
barometer
mb
20260504160308 74 154 2.0 2.0 0.00 0.00 0.00 50 1015.9
20260504150733 72 110 0.0 1.0 0.00 0.00 0.00 51 1015.8
20260504150230 72 196 1.0 2.0 0.00 0.00 0.00 50 1016.0
20260504141159 67 134 0.0 0.0 0.00 0.00 0.00 56 1016.2
20260504140656 66 138 0.0 1.0 0.00 0.00 0.00 59 1016.3
20260504140152 65 152 1.0 1.0 0.00 0.00 0.00 60 1016.2
20260504130620 59 141 0.0 0.0 0.00 0.00 0.00 68 1016.6
20260504130117 59 151 1.0 1.0 0.00 0.00 0.00 69 1016.5
20260504110508 51 130 0.0 0.0 0.00 0.00 0.00 77 1015.5
20260504100430 50 137 0.0 0.0 0.00 0.00 0.00 80 1015.3
20260504081823 48 141 0.0 0.0 0.00 0.00 0.00 87 1015.3
20260504081320 48 141 0.0 0.0 0.00 0.00 0.00 87 1015.3
20260504080816 48 141 0.0 0.0 0.00 0.00 0.00 86 1015.4
20260504080313 48 141 0.0 0.0 0.00 0.00 0.00 86 1015.4
20260504070240 48 141 0.0 0.0 0.00 0.00 0.00 86 1015.9
20260504060201 48 139 0.0 0.0 0.00 0.00 0.00 87 1016.6
20260504050629 50 140 0.0 0.0 0.00 0.00 0.00 84 1016.8
20260504050126 50 138 0.0 0.0 0.00 0.00 0.00 84 1016.8
20260504045624 50 139 0.0 0.0 0.00 0.00 0.00 84 1017.0
20260504045123 50 136 0.0 0.0 0.00 0.00 0.00 85 1016.9
20260504044622 50 140 0.0 0.0 0.00 0.00 0.00 85 1016.9
20260504044118 50 140 0.0 0.0 0.00 0.00 0.00 85 1016.8
20260504043615 50 140 0.0 0.0 0.00 0.00 0.00 85 1016.9
20260504043113 50 140 0.0 0.0 0.00 0.00 0.00 84 1016.9
20260504042610 50 140 0.0 0.0 0.00 0.00 0.00 83 1016.9
20260504042107 50 141 0.0 0.0 0.00 0.00 0.00 84 1016.8
20260504041602 50 141 0.0 0.0 0.00 0.00 0.00 84 1016.9
20260504041059 50 140 0.0 0.0 0.00 0.00 0.00 83 1016.8
20260504040556 50 141 0.0 0.0 0.00 0.00 0.00 84 1016.9
20260504040053 50 140 0.0 0.0 0.00 0.00 0.00 84 1017.0
20260504035549 50 140 0.0 0.0 0.00 0.00 0.00 84 1016.9
20260504035046 50 141 0.0 0.0 0.00 0.00 0.00 85 1017.1
20260504034544 50 139 0.0 0.0 0.00 0.00 0.00 85 1017.0
20260504034040 50 137 0.0 0.0 0.00 0.00 0.00 84 1017.3
20260504033538 50 135 0.0 0.0 0.00 0.00 0.00 83 1017.3
20260504033035 50 134 0.0 0.0 0.00 0.00 0.00 82 1017.3
20260504032532 50 134 0.0 0.0 0.00 0.00 0.00 83 1017.3
20260504032029 50 137 0.0 0.0 0.00 0.00 0.00 80 1017.2
20260504031526 50 135 0.0 0.0 0.00 0.00 0.00 78 1017.4
20260504031022 51 135 0.0 0.0 0.00 0.00 0.00 78 1017.5
20260504030520 51 135 0.0 0.0 0.00 0.00 0.00 79 1017.6
20260504030016 51 135 0.0 0.0 0.00 0.00 0.00 77 1017.5
20260504025513 51 131 0.0 0.0 0.00 0.00 0.00 77 1017.5
20260504025010 51 129 0.0 0.0 0.00 0.00 0.00 79 1017.9
20260504024507 52 137 0.0 0.0 0.00 0.00 0.00 78 1017.6
20260504024004 52 137 0.0 0.0 0.00 0.00 0.00 77 1017.6
20260504023500 52 134 0.0 0.0 0.00 0.00 0.00 74 1017.7
20260504022956 52 132 0.0 0.0 0.00 0.00 0.00 76 1017.5
20260504022452 53 135 0.0 0.0 0.00 0.00 0.00 77 1017.6
20260504021949 53 135 0.0 0.0 0.00 0.00 0.00 75 1017.4
20260504021446 53 132 0.0 0.0 0.00 0.00 0.00 73 1017.4
20260504020944 53 133 0.0 0.0 0.00 0.00 0.00 74 1017.3
20260504020440 53 129 0.0 0.0 0.00 0.00 0.00 74 1017.2
20260504015937 53 136 0.0 0.0 0.00 0.00 0.00 74 1016.8
20260504015433 53 136 0.0 0.0 0.00 0.00 0.00 72 1017.0
20260504014929 53 136 0.0 0.0 0.00 0.00 0.00 72 1016.9
20260504014425 53 133 0.0 0.0 0.00 0.00 0.00 72 1016.7
20260504013922 53 133 0.0 0.0 0.00 0.00 0.00 73 1016.7
20260504013421 53 134 0.0 0.0 0.00 0.00 0.00 75 1016.7
20260504012916 53 134 0.0 0.0 0.00 0.00 0.00 73 1016.3
20260504012414 53 134 0.0 0.0 0.00 0.00 0.00 73 1016.5
20260504011912 54 134 0.0 0.0 0.00 0.00 0.00 71 1016.6
20260504011408 54 134 0.0 0.0 0.00 0.00 0.00 70 1016.3
20260504010904 55 133 0.0 0.0 0.00 0.00 0.00 71 1016.5
20260504010400 55 130 0.0 0.0 0.00 0.00 0.00 72 1016.2
20260504005856 55 133 0.0 0.0 0.00 0.00 0.00 71 1016.3
20260504005353 55 133 0.0 0.0 0.00 0.00 0.00 71 1016.5
20260504004851 56 138 0.0 0.0 0.00 0.00 0.00 69 1016.5
20260504004348 57 138 0.0 0.0 0.00 0.00 0.00 68 1016.3
20260504003845 58 138 0.0 0.0 0.00 0.00 0.00 69 1016.2
20260504003342 58 138 0.0 0.0 0.00 0.00 0.00 68 1016.3
20260504002838 59 139 0.0 0.0 0.00 0.00 0.00 68 1016.5
20260504002335 60 139 0.0 0.0 0.00 0.00 0.00 63 1016.5
20260504001833 61 139 0.0 0.0 0.00 0.00 0.00 60 1016.5
20260504001330 61 134 0.0 0.0 0.00 0.00 0.00 60 1016.5
20260504000827 62 138 0.0 0.0 0.00 0.00 0.00 58 1016.7
20260504000324 63 137 0.0 0.0 0.00 0.00 0.00 54 1016.6
20260503235821 64 136 0.0 0.0 0.00 0.00 0.00 52 1016.7
20260503235319 64 140 0.0 0.0 0.00 0.00 0.00 50 1016.8
20260503234816 65 139 0.0 0.0 0.00 0.00 0.00 48 1016.7
20260503234314 65 138 0.0 0.0 0.00 0.00 0.00 46 1016.7
20260503233811 66 142 0.0 0.0 0.00 0.00 0.00 46 1016.5
20260503233307 66 153 1.0 2.0 0.00 0.00 0.00 48 1016.6
20260503232804 67 138 0.0 0.0 0.00 0.00 0.00 43 1016.7
20260503232301 68 133 0.0 0.0 0.00 0.00 0.00 40 1016.8
20260503231759 68 132 0.0 0.0 0.00 0.00 0.00 41 1016.7
20260503231256 69 139 0.0 0.0 0.00 0.00 0.00 42 1016.9
20260503230756 69 138 0.0 0.0 0.00 0.00 0.00 41 1016.9
20260503230254 70 140 1.0 1.0 0.00 0.00 0.00 40 1017.0
20260503225752 70 144 0.0 0.0 0.00 0.00 0.00 40 1016.7
20260503225252 69 136 0.0 0.0 0.00 0.00 0.00 37 1016.9
20260503224748 70 138 1.0 2.0 0.00 0.00 0.00 37 1016.9
20260503224246 70 74 1.0 1.0 0.00 0.00 0.00 37 1017.0
20260503223744 70 131 1.0 1.0 0.00 0.00 0.00 39 1017.1
20260503223241 70 15 2.0 3.0 0.00 0.00 0.00 37 1016.9
20260503222737 71 120 1.0 1.0 0.00 0.00 0.00 36 1017.0
20260503222235 71 55 1.0 1.0 0.00 0.00 0.00 37 1017.1
20260503221733 71 143 0.0 1.0 0.00 0.00 0.00 36 1017.0
20260503221231 70 154 0.0 0.0 0.00 0.00 0.00 37 1017.2
20260503220727 71 147 1.0 1.0 0.00 0.00 0.00 39 1017.1
20260503220224 71 143 1.0 2.0 0.00 0.00 0.00 37 1017.3
20260503215721 71 165 1.0 1.0 0.00 0.00 0.00 36 1017.3
20260503215218 70 99 0.0 1.0 0.00 0.00 0.00 36 1017.3
20260503214716 70 104 0.0 1.0 0.00 0.00 0.00 36 1017.3
20260503214212 70 139 1.0 2.0 0.00 0.00 0.00 35 1017.5
20260503213711 70 151 1.0 2.0 0.00 0.00 0.00 36 1017.7
20260503213208 71 85 2.0 3.0 0.00 0.00 0.00 34 1017.7
20260503212704 71 183 3.0 4.0 0.00 0.00 0.00 35 1017.6
20260503212202 71 151 0.0 1.0 0.00 0.00 0.00 37 1017.7
20260503211700 71 155 0.0 1.0 0.00 0.00 0.00 35 1017.9
20260503211155 71 150 1.0 1.0 0.00 0.00 0.00 36 1017.9
20260503210651 71 310 1.0 2.0 0.00 0.00 0.00 34 1017.9
20260503210148 71 150 0.0 1.0 0.00 0.00 0.00 39 1017.9
20260503205644 71 195 2.0 2.0 0.00 0.00 0.00 38 1017.9
20260503205140 72 142 1.0 1.0 0.00 0.00 0.00 39 1018.1
20260503204637 71 191 2.0 3.0 0.00 0.00 0.00 37 1018.1
20260503204135 71 177 1.0 1.0 0.00 0.00 0.00 38 1018.3
20260503203631 71 68 3.0 4.0 0.00 0.00 0.00 38 1018.3
20260503203129 72 62 1.0 2.0 0.00 0.00 0.00 38 1018.2
20260503202626 72 148 0.0 0.0 0.00 0.00 0.00 37 1018.3
20260503202124 71 126 0.0 1.0 0.00 0.00 0.00 41 1018.4
20260503201622 71 158 1.0 1.0 0.00 0.00 0.00 38 1018.6
20260503201119 71 16 2.0 3.0 0.00 0.00 0.00 38 1018.6
20260503200615 70 118 2.0 2.0 0.00 0.00 0.00 38 1018.7
20260503200112 70 212 3.0 4.0 0.00 0.00 0.00 40 1019.0
20260503195609 70 97 4.0 4.0 0.00 0.00 0.00 38 1019.1
20260503195106 71 136 1.0 1.0 0.00 0.00 0.00 39 1019.1
20260503194604 70 156 0.0 0.0 0.00 0.00 0.00 39 1019.2
20260503194103 70 175 1.0 1.0 0.00 0.00 0.00 37 1019.2
20260503193600 70 186 2.0 2.0 0.00 0.00 0.00 37 1019.5
20260503193055 69 157 1.0 2.0 0.00 0.00 0.00 38 1019.6
20260503192552 70 175 3.0 4.0 0.00 0.00 0.00 36 1019.6
20260503192048 70 149 1.0 2.0 0.00 0.00 0.00 37 1019.6
20260503191545 70 120 0.0 1.0 0.00 0.00 0.00 41 1019.6
20260503191042 71 113 1.0 1.0 0.00 0.00 0.00 45 1019.8
20260503190539 69 140 1.0 1.0 0.00 0.00 0.00 41 1020.0
20260503190036 69 310 2.0 3.0 0.00 0.00 0.00 42 1020.0
20260503185533 69 216 1.0 2.0 0.00 0.00 0.00 40 1019.9
20260503185032 69 84 3.0 4.0 0.00 0.00 0.00 39 1020.1
20260503184528 68 193 3.0 3.0 0.00 0.00 0.00 44 1020.0
20260503184025 68 187 3.0 3.0 0.00 0.00 0.00 38 1020.2
20260503183522 69 30 2.0 3.0 0.00 0.00 0.00 39 1020.2
20260503183019 69 37 2.0 2.0 0.00 0.00 0.00 38 1020.4
20260503182517 68 114 0.0 1.0 0.00 0.00 0.00 40 1020.3
20260503182015 68 158 1.0 2.0 0.00 0.00 0.00 42 1020.4
20260503181512 68 125 0.0 1.0 0.00 0.00 0.00 41 1020.4
20260503181008 67 187 1.0 1.0 0.00 0.00 0.00 42 1020.6
20260503180505 67 68 2.0 2.0 0.00 0.00 0.00 41 1020.6
20260503180002 67 144 1.0 1.0 0.00 0.00 0.00 43 1020.7
20260503175500 67 330 3.0 3.0 0.00 0.00 0.00 42 1020.7
20260503174956 67 180 1.0 2.0 0.00 0.00 0.00 41 1020.7
20260503174454 66 94 0.0 1.0 0.00 0.00 0.00 43 1020.7
20260503173949 66 150 1.0 2.0 0.00 0.00 0.00 47 1020.7
20260503173445 66 290 2.0 3.0 0.00 0.00 0.00 45 1020.8
20260503172942 67 124 1.0 1.0 0.00 0.00 0.00 44 1020.9
20260503172440 66 125 1.0 1.0 0.00 0.00 0.00 44 1020.8
20260503171936 65 115 1.0 2.0 0.00 0.00 0.00 46 1021.0
20260503171433 65 177 3.0 3.0 0.00 0.00 0.00 45 1021.1
20260503170930 66 143 1.0 1.0 0.00 0.00 0.00 44 1021.4
20260503170426 65 159 2.0 3.0 0.00 0.00 0.00 45 1021.3